Tracking 25963 objects as of 12-Aug-2022
HD Live streaming from Space Station
objects crossing your sky now

RESURS O1 DEB

Track RESURS O1 DEB now!
10-day predictions


NORAD ID: 47218
Int'l Code: 1994-074DE
Perigee: 600.7 km
Apogee: 603.0 km
Inclination: 97.9 °
Period: 96.6 minutes
Semi major axis: 6972 km
RCS: Unknown
Launch date: November 4, 1994
Source: Commonwealth of Independent States (former USSR) (CIS)
Launch site: TYURATAM MISSILE AND SPACE COMPLEX (TTMTR)

Note: This is SATELLITE DEBRIS
aabbcc
Your satellite tracking list
Your tracking list is empty




NASA's NSSDC Master Catalog

Two Line Element Set (TLE):
1 47218U 94074DD  22222.94060096  .00027164  00000-0  27409-2 0  9994
2 47218  97.8799 272.6839 0001643  65.8397 294.2992 14.91044005 93582
Source of the keplerian elements: AFSPC